Theta_e
316 316 315 314 313 311 316 321 314 324 324 310 311 307 309 307 311 312 309 310 309 309 310 309 309 309 312 315 313 309 312 309 307 309 314 314 312 310 310 304 304 307 306 306
317 316 315 314 312 312 318 318 320 327 322 307 309 312 311 312 310 309 308 307 309 312 310 308 310 312 316 316 313 311 313 306 302 307 311 313 310 312 311 311 310 307 303 306
316 317 315 313 312 312 318 318 314 320 320 316 312 310 310 310 313 311 311 309 310 308 308 312 308 310 314 316 316 324 318 309 306 304 305 311 308 309 310 310 305 306 306 311
316 317 315 314 313 313 317 319 315 316 310 312 314 314 311 309 308 312 312 308 307 307 305 307 307 310 312 315 318 316 313 306 309 311 312 313 310 309 309 308 309 305 309 311
317 317 316 315 314 313 318 314 313 315 314 315 314 310 311 309 310 312 308 307 308 309 306 307 307 310 312 312 315 314 315 309 310 308 311 311 308 309 309 308 308 308 310 311
317 318 317 317 316 314 316 320 320 315 309 311 309 311 310 309 313 314 314 312 312 307 310 313 314 316 316 314 312 313 312 310 310 304 310 307 305 308 308 309 310 310 307 316
318 318 318 318 318 315 317 318 317 311 306 308 308 311 312 311 312 310 313 314 313 317 320 319 318 316 314 313 313 314 314 314 312 305 308 299 310 315 313 311 311 312 312 314
319 319 320 319 319 318 317 319 315 311 306 310 308 310 311 313 314 313 312 315 317 321 316 310 308 307 309 310 312 312 315 315 308 304 303 308 310 313 311 310 309 314 313 315
319 319 319 319 319 318 319 319 317 307 304 306 312 309 310 310 309 311 313 318 318 317 311 307 302 301 305 305 307 313 312 314 309 308 302 299 310 314 317 316 305 317 318 318
318 318 319 319 320 318 318 318 319 310 302 310 312 309 309 311 310 309 311 314 312 315 308 304 302 301 308 302 304 306 305 308 306 305 304 307 315 317 318 305 309 319 319 320
317 317 318 318 319 319 317 321 321 311 304 307 312 314 310 310 312 308 311 311 312 309 305 304 304 303 306 305 310 310 308 305 305 307 305 302 318 316 310 321 322 320 320 322
315 316 316 317 318 319 316 312 316 316 306 308 314 315 317 317 316 313 314 311 312 312 306 307 308 306 308 308 303 314 305 308 309 310 309 325 320 320 322 321 322 320 322 323
314 314 315 316 317 318 317 314 314 311 306 306 310 310 317 320 318 320 312 314 316 314 317 313 312 309 312 305 306 310 313 314 309 314 319 319 320 322 323 322 322 323 322 323
313 314 314 315 316 316 317 314 316 314 308 299 305 314 313 317 318 319 318 317 317 317 316 311 309 307 316 310 312 312 314 317 312 313 318 321 320 321 321 322 323 323 324 324
312 313 314 314 313 313 314 317 315 315 307 300 301 309 312 317 319 318 317 315 313 311 308 307 306 316 313 312 312 312 317 316 310 308 319 323 316 323 322 322 323 323 323 324
312 312 312 313 312 311 310 304 311 314 313 302 295 310 312 315 316 316 315 315 313 313 309 308 310 316 313 305 306 315 317 320 322 318 326 327 326 326 323 324 324 324 324 326
312 311 311 312 312 312 307 304 308 311 312 301 297 303 313 316 315 314 312 314 312 311 309 307 309 310 314 307 300 310 320 321 322 324 325 322 322 321 324 323 325 324 326 326
312 312 312 311 311 310 308 314 310 312 306 304 297 300 305 313 310 307 314 310 313 312 308 310 308 311 310 304 313 316 318 320 322 323 324 323 325 324 323 325 325 324 324 325
312 311 311 312 308 306 310 313 312 313 306 298 299 296 298 309 309 309 309 312 303 310 304 306 310 307 304 309 314 316 318 318 320 321 322 322 322 323 324 325 324 324 324 328
311 310 309 304 308 314 313 309 303 303 303 302 298 305 300 305 306 306 305 309 303 300 306 311 306 305 315 317 320 321 320 320 321 318 318 321 321 322 323 323 325 327 329 329
313 307 306 315 315 310 305 300 298 299 298 301 304 305 300 310 303 303 309 303 305 299 304 304 303 303 310 319 320 324 324 322 321 322 324 324 323 323 323 325 326 328 329 329
307 307 311 312 309 305 299 298 301 299 297 303 300 303 303 308 309 303 306 303 306 300 311 303 300 310 318 321 320 321 325 322 321 323 324 325 325 325 326 325 327 323 327 332
312 308 303 304 305 294 296 294 296 297 302 305 306 303 307 309 312 307 306 301 300 310 305 300 311 320 321 323 324 323 324 323 321 321 324 325 328 326 327 327 329 330 330 327
304 302 292 300 298 301 302 301 303 306 306 306 305 303 305 309 305 306 298 305 308 301 300 302 313 319 323 325 326 324 324 325 323 321 322 323 324 326 326 327 330 327 328 328
301 302 294 299 304 306 306 309 308 310 314 309 307 308 310 306 301 302 300 302 299 300 301 309 312 323 327 327 327 325 323 321 321 321 321 322 324 326 327 327 329 333 335 334
303 302 300 304 302 304 305 308 308 312 311 310 310 306 303 302 304 303 302 300 299 302 307 318 323 323 325 328 329 328 329 330 327 323 323 324 324 326 330 330 328 330 334 336
301 301 305 304 304 303 306 307 309 314 309 306 307 302 302 309 304 302 308 304 306 311 311 324 328 328 329 331 328 329 330 331 331 330 330 326 326 328 329 331 333 330 335 338
Wind_Speed
16 16 16 17 19 26 12 10 8 8 6 8 8 14 19 20 23 18 16 14 19 19 17 21 18 17 14 14 18 19 13 14 13 15 13 13 17 12 9 7 5 6 13 8
16 16 14 14 14 14 8 7 10 8 7 9 12 16 21 22 22 19 18 18 18 19 17 16 14 13 17 17 15 10 10 13 11 7 12 15 7 9 11 9 4 7 9 9
16 16 12 13 12 11 7 7 6 6 8 11 17 19 16 16 17 16 12 16 18 17 18 16 13 18 16 7 7 6 4 15 15 5 12 15 13 10 14 14 10 7 10 8
16 15 12 12 12 10 6 7 6 12 8 8 12 14 16 20 12 13 16 17 20 16 18 14 14 18 19 11 9 4 8 15 17 9 16 17 7 9 6 8 10 11 5 10
15 15 13 11 13 17 5 6 11 9 14 16 16 13 11 16 15 18 15 14 18 17 14 14 15 16 15 13 12 13 13 14 15 15 10 19 15 7 7 8 12 10 10 7
14 13 12 12 11 10 6 10 12 9 12 15 11 11 12 20 15 19 17 8 7 15 9 12 16 10 11 13 13 14 16 13 12 15 14 20 26 11 10 10 9 6 7 12
12 11 11 12 10 6 6 9 9 10 12 13 11 11 14 13 14 11 17 8 6 5 14 12 12 12 12 13 15 18 16 15 13 13 12 9 15 6 2 8 4 3 6 2
11 10 10 10 9 6 7 5 5 7 11 13 12 16 9 11 12 13 13 14 13 12 8 12 9 11 15 17 15 15 7 10 13 13 12 11 18 11 6 8 8 8 8 8
10 9 10 11 9 8 7 5 2 2 6 4 19 15 13 11 9 11 13 17 12 12 8 10 14 13 17 17 10 15 9 16 11 9 11 15 9 16 12 9 6 8 8 3
10 11 10 11 9 5 7 2 5 0 4 12 13 11 10 12 11 10 5 11 11 10 9 12 13 14 16 18 21 18 8 8 13 10 11 11 7 14 5 6 4 4 9 8
13 12 11 12 12 6 5 3 3 2 3 11 17 20 18 12 10 7 7 7 8 8 10 11 12 13 13 16 18 18 19 11 10 8 18 12 7 9 11 7 6 4 2 6
12 13 13 13 12 7 5 2 1 2 2 9 20 21 21 19 17 12 9 5 13 6 5 7 5 11 12 15 16 14 13 3 11 14 9 10 12 5 11 6 5 5 5 7
11 12 13 13 12 8 9 2 2 1 3 9 14 15 19 20 18 17 10 8 7 7 10 4 5 5 8 10 14 9 11 11 15 12 12 11 10 4 10 10 8 9 5 5
11 12 12 12 11 7 8 2 1 3 2 5 9 12 9 18 15 17 19 17 13 7 6 2 2 4 6 7 9 13 4 4 17 18 20 9 19 21 9 11 10 10 11 7
11 12 11 10 9 8 4 3 4 4 3 4 9 22 27 17 16 14 9 15 13 3 6 4 9 3 3 4 5 11 10 6 8 6 22 8 5 12 9 9 12 7 7 10
11 11 11 9 7 7 3 3 3 4 2 2 5 11 12 12 14 16 11 10 7 7 6 6 6 2 3 4 4 5 10 16 8 2 17 13 18 26 11 12 11 10 7 9
11 11 10 9 7 5 4 3 1 3 2 2 5 6 4 11 9 4 6 13 3 1 4 7 9 1 3 2 5 14 6 8 12 7 12 7 8 7 9 6 11 8 8 10
12 11 10 9 7 11 7 3 12 3 2 2 4 6 6 11 2 1 3 1 3 5 5 5 8 4 3 8 16 25 7 8 11 12 7 4 8 5 7 10 10 12 9 11
13 13 13 4 2 3 1 4 7 2 2 3 3 3 5 7 3 5 2 3 1 2 4 8 6 10 9 11 14 14 1 3 9 14 15 5 2 4 6 9 9 12 11 10
14 8 3 3 4 5 3 5 3 3 4 4 5 4 5 2 2 2 3 3 2 4 9 7 10 13 15 15 15 11 10 9 11 14 13 11 6 7 10 11 11 10 9 12
3 3 2 2 12 2 3 3 4 4 4 4 4 4 3 3 2 3 1 3 5 5 4 9 7 11 15 16 18 16 14 14 17 20 14 11 12 9 9 9 8 9 11 13
6 6 8 4 4 4 4 4 3 5 2 2 3 4 5 3 2 4 3 4 3 5 4 6 5 3 9 7 21 18 14 14 15 16 12 13 12 9 8 8 6 10 23 8
3 4 4 4 5 4 6 3 2 3 3 3 3 2 3 4 3 4 5 6 5 7 3 3 3 4 2 2 2 3 7 13 17 16 13 9 5 6 4 3 13 17 10 8
4 5 5 5 5 7 4 3 5 4 4 5 4 3 3 0 1 2 4 4 4 5 3 3 3 7 7 3 5 8 10 12 14 16 13 6 3 6 3 8 14 11 8 12
5 4 5 6 4 7 6 6 6 7 6 4 3 4 1 0 2 3 5 5 3 4 2 2 4 6 4 4 10 9 4 9 10 12 12 11 9 7 6 3 1 8 15 16
5 6 8 7 8 4 7 3 4 5 7 5 3 3 4 8 6 9 12 4 3 4 6 3 3 4 5 3 7 8 10 9 7 5 9 11 13 12 9 9 7 7 9 9
5 6 7 7 8 8 6 4 8 7 3 2 2 5 2 6 6 4 7 5 4 6 6 7 7 6 6 6 8 8 8 7 7 5 5 2 5 6 7 9 8 8 8 9
Wind_Direction
326 328 337 337 338 334 316 283 262 135 174 216 233 240 243 260 269 287 264 259 282 286 290 282 221 234 235 184 228 209 238 266 178 225 207 212 248 244 239 241 267 272 174 149
326 325 331 338 342 356 320 278 277 176 211 249 229 245 238 247 253 243 262 262 253 274 277 291 300 243 228 177 193 237 203 244 257 262 220 199 246 257 281 279 227 291 288 130
324 325 332 335 335 339 315 278 287 205 194 250 276 292 294 245 240 257 270 266 273 249 264 276 288 289 276 156 174 49 238 245 240 225 46 292 212 223 244 266 271 147 28 183
325 326 328 328 327 330 293 249 282 341 288 289 311 272 264 282 272 236 230 247 260 249 251 256 256 274 276 183 140 190 238 245 264 185 198 262 278 195 204 235 289 304 95 124
325 328 327 330 334 324 252 298 333 330 307 304 289 283 285 289 284 283 251 222 253 257 255 258 258 254 268 273 189 215 222 243 261 272 81 316 238 249 264 262 278 272 284 129
322 324 328 327 334 334 295 346 338 317 284 281 276 283 310 317 307 270 275 296 305 236 284 269 266 306 316 306 303 235 216 240 240 250 185 188 256 225 243 256 257 267 269 113
320 320 321 322 328 323 303 308 317 288 285 289 297 287 309 277 312 322 314 289 243 67 9 321 286 271 274 287 290 284 197 221 250 251 251 229 266 236 126 4 338 279 274 234
316 320 322 320 318 309 288 310 319 305 293 291 277 310 298 293 302 297 280 299 306 308 328 294 258 261 260 256 261 281 275 233 228 245 246 248 264 173 187 203 238 252 258 273
340 334 321 320 317 308 268 267 119 319 313 242 353 330 272 277 303 290 292 294 280 297 284 268 247 240 234 221 234 260 178 240 285 239 220 257 254 17 201 147 231 234 236 177
342 335 333 330 331 280 252 318 140 182 269 280 318 294 334 323 308 296 305 324 279 236 248 249 240 242 255 235 232 242 261 256 212 258 225 244 184 154 162 197 81 43 164 152
345 350 344 345 333 312 234 299 155 195 254 281 272 287 292 302 313 296 343 267 250 262 246 252 258 263 261 248 257 218 236 234 217 227 249 220 130 124 169 113 135 90 74 153
347 349 348 342 337 321 185 273 34 44 246 292 312 285 279 283 276 283 284 330 294 348 288 241 289 242 253 245 247 243 242 276 271 246 239 178 214 210 157 150 144 132 148 151
343 343 344 340 333 328 200 305 137 189 272 275 249 256 252 238 234 251 265 272 278 316 4 22 301 281 319 271 252 239 191 227 265 295 246 92 1 207 178 158 178 151 167 170
336 335 340 346 340 312 212 233 227 248 286 275 286 305 319 310 301 234 239 254 272 276 287 176 275 306 13 298 314 317 269 210 255 266 276 162 180 226 185 173 145 160 169 165
337 336 336 342 352 356 311 270 230 233 257 304 306 307 281 249 240 234 242 242 249 119 254 278 250 183 304 296 309 297 320 243 197 249 279 165 144 315 179 167 152 166 152 139
333 329 330 331 329 337 306 296 34 354 190 296 302 330 289 270 260 214 234 227 259 219 258 218 278 229 159 267 264 338 310 342 16 248 324 152 153 190 185 176 170 170 184 150
318 317 314 311 307 282 252 304 62 14 22 259 275 259 356 263 216 249 233 212 162 329 217 239 246 147 261 261 263 247 189 287 328 295 240 190 113 130 145 171 168 143 177 159
305 302 298 290 289 271 266 285 189 111 261 261 268 274 294 13 352 179 110 149 160 199 215 248 230 208 191 252 223 223 180 316 303 308 334 349 144 180 195 193 175 159 187 169
297 296 292 258 219 243 81 72 121 156 285 272 262 293 313 353 10 269 123 98 213 216 216 229 232 208 219 243 265 277 218 182 293 315 312 255 199 184 212 171 183 182 184 162
295 274 230 231 211 139 169 178 189 198 195 221 250 210 255 130 236 266 148 135 221 224 207 202 226 233 229 246 272 276 291 275 274 274 275 285 226 197 238 225 200 194 186 162
211 237 227 267 137 150 225 225 219 183 223 205 254 259 257 283 225 292 306 193 212 239 167 200 207 225 229 230 235 228 224 237 242 246 254 246 264 250 217 226 208 193 197 170
318 301 275 269 233 211 234 216 230 214 280 182 222 204 210 250 174 203 259 273 293 244 306 208 261 294 178 285 218 226 199 229 234 236 227 240 242 247 246 243 87 34 344 136
249 231 241 221 216 242 230 236 100 253 233 181 206 241 221 240 260 248 204 225 223 324 238 221 353 139 131 7 336 256 234 223 215 236 244 227 214 230 240 106 116 139 171 68
245 227 252 242 218 244 205 217 181 201 197 197 211 291 236 135 344 321 283 305 284 232 266 39 9 335 313 231 214 212 206 204 215 208 226 214 162 216 229 126 180 147 135 117
265 258 240 247 277 291 313 299 78 253 213 162 194 231 160 242 237 192 262 259 260 26 279 265 243 302 291 309 30 20 99 161 181 198 207 204 209 203 183 224 232 140 153 167
252 235 251 257 275 337 306 352 186 253 198 123 216 243 230 205 217 202 204 222 105 235 195 233 190 162 119 42 59 38 38 46 57 150 195 208 214 220 201 191 238 177 160 167
263 248 273 272 280 292 265 352 306 340 358 95 264 266 257 283 261 342 34 18 68 307 261 202 130 103 97 84 76 65 55 46 46 59 52 162 228 264 197 187 198 198 175 184